sat.trackr.live / text

‹ back to catalog

UNKNOWN

NORAD 82162

UNKNOWN UNKNOWN UNKNOWN

§ Identity

Operator
Country
Launch date
Launch site
Launch vehicle
Mass (kg)
RCS (m²)

External: N2YO · Heavens-Above

§ Orbital elements

Epoch: 2026-05-24T02:37:40.726560Z

Period
106.29 min
Inclination
100.4648°
Eccentricity
0.0043044
Mean motion
13.54834201 rev/d
Perigee alt
1,022.5 km
Apogee alt
1,086.5 km
Semi-major
7,432.7 km
B*
4.4712e-3
RAAN
83.0091°
Arg perigee
190.5337°
Mean anomaly
169.4899°
Rev number
52,628

§ Raw data

UNKNOWN1 82162U          26144.10949915  .00003040  00000+0  44712-2 0  99902 82162 100.4648  83.0091 0043044 190.5337 169.4899 13.54834201526288

JSON: /api/v1/satellites/82162 · /tle

For live sub-satellite position, see the globe view (requires WebGL).

§ Visibility from observer

Set your observer location to see the next 7 days of passes ≥ 10°. The values pass through the URL so the page stays shareable.

No JS? Fill the form by hand. The geolocation button needs JavaScript.